sat.trackr.live / text

‹ back to catalog

STARLINK-11713 [DTC]

NORAD 64070 · 2025-107G

PAYLOAD ACTIVE UNKNOWN

§ Identity

Operator
Country
US
Launch date
2025-05-21
Launch site
AFETR
Launch vehicle
Mass (kg)
RCS (m²)

Purposes: comms

External: N2YO · Heavens-Above · Gunter

§ Orbital elements

Epoch: 2026-05-24T14:12:04.799808Z

Period
91.66 min
Inclination
43.0005°
Eccentricity
0.0002026
Mean motion
15.70952732 rev/d
Perigee alt
354.8 km
Apogee alt
357.5 km
Semi-major
6,734.3 km
B*
1.5219e-3
RAAN
0.8829°
Arg perigee
247.8197°
Mean anomaly
112.2456°
Rev number
5,923

§ Raw data

STARLINK-11713 [DTC]1 64070U 25107G   26144.59172222  .00200570  00000+0  15219-2 0  99922 64070  43.0005   0.8829 0002026 247.8197 112.2456 15.70952732 59237

JSON: /api/v1/satellites/64070 · /tle

For live sub-satellite position, see the globe view (requires WebGL).

§ Visibility from observer

Set your observer location to see the next 7 days of passes ≥ 10°. The values pass through the URL so the page stays shareable.

No JS? Fill the form by hand. The geolocation button needs JavaScript.